Back to catalog

FENGYUN 1C DEB

AliveSSO
NORAD 31381·DEBRIS·🇨🇳 China

Launched May 10, 1999 from Taiyuan Satellite Launch Center

Loading…

Next Passes (next 24 hours)

TLE

AgingSource: Space-Track

Epoch: Sep 6, 2026, 11:54 UTC

1 31381U 99025BSM 26249.49630712  .00000354  00000-0  10828-3 0  9990
2 31381  98.4774 334.5184 0194730 312.3501  46.1334 14.37924240 12442

Track FENGYUN 1C DEB in real time with AllMySat

Download on the App Store